Home   Weather   Bitburg   Past weeks

Flag for Germany Past Weather in Bitburg, Rhineland-Palatinate, Germany — Yesterday and Last 2 Weeks

Now
14 °F

Ice fog.


Feels Like: 14 °F
Forecast: 17 / 31 °F
Wind: No wind

Location: Spangdahlem

Current Time: Jan 23, 2017 at 5:43:47 am

Latest Report: Jan 23, 2017 at 5:03 am


Visibility: 4 mi

Pressure: 30.23 "Hg

Humidity: 85%

Dew Point: 10 °F

Location of BitburgLocation

Past Weather in Bitburg — Graph

°F

Bitburg Temperature Yesterday

Maximum temperature yesterday: 33 °F (at 3:58 pm)
Minimum temperature yesterday: 12 °F (at 5:58 am)
Average temperature yesterday: 21 °F

High & Low Weather Summary for the Past Weeks

 TemperatureHumidityPressure
High41 °F (Jan 11, 6:33 pm)100% (Jan 8, 9:03 am)30.65 "Hg (Jan 8, 9:03 am)
Low12 °F (Jan 22, 5:58 am)38% (Jan 20, 4:58 pm)29.06 "Hg (Jan 13, 12:58 am)
Average29 °F87%30.08 "Hg
* Reported Jan 8 3:19 am — Jan 23 3:58 am, Bitburg, Weather by CustomWeather, © 2017

Note: Actual official high and low records may vary slightly from our data, if they occured in-between our weather recording intervals... More about our weather records

Advertising

Bitburg Weather History for the Previous 24 Hours

Scroll right to see more
 ConditionsComfort  
Time TempWeatherWind HumidityBarometerVisibility
3:58 am
Mon, Jan 23
14 °FClear.5 mph92%30.30 "HgN/A
3:28 am14 °FIce fog.No wind85%30.24 "Hg5 mi
3:23 am14 °FIce fog.No wind85%30.24 "Hg5 mi
2:58 am14 °FIce fog.No wind85%30.30 "Hg6 mi
1:58 am16 °FIce fog.No wind87%30.31 "Hg6 mi
12:58 am19 °FClear.3 mph86%30.30 "HgN/A
11:58 pm
Sun, Jan 22
18 °FClear.3 mph79%30.32 "HgN/A
10:58 pm21 °FClear.5 mph80%30.31 "HgN/A
9:58 pm18 °FClear.3 mph79%30.31 "HgN/A
8:58 pm22 °FClear.7 mph73%30.32 "HgN/A
7:58 pm22 °FClear.8 mph73%30.31 "HgN/A
6:58 pm24 °FClear.7 mph69%30.30 "HgN/A
5:58 pm26 °FClear.3 mph67%30.29 "HgN/A
4:58 pm29 °FSunny.5 mph62%30.28 "HgN/A
3:58 pm33 °FSunny.No wind52%30.27 "HgN/A
2:58 pm31 °FSunny.No wind59%30.27 "HgN/A
1:58 pm29 °FSunny.No wind60%30.29 "HgN/A
12:58 pm29 °FSunny.No wind62%30.31 "HgN/A
11:58 am27 °FSunny.6 mph64%30.31 "HgN/A
10:58 am21 °FSunny.6 mph74%30.33 "HgN/A
9:58 am16 °FSunny.No wind79%30.34 "HgN/A
8:58 am16 °FSunny.No wind83%30.33 "HgN/A
7:58 am16 °FClear.3 mph83%30.32 "HgN/A
6:58 am14 °FClear.No wind85%30.33 "HgN/A
5:58 am12 °FClear.No wind85%30.35 "HgN/A
Weather by CustomWeather, © 2017

See weather overviewHow to use our weather pages